Weather History for KBPK - July, 2013

Change the Weather History Date:

Wednesday, July 24, 2013

  Actual Average (KHRO) Record (KHRO)
Temperature  
Mean Temperature 75 °F 79 °F  
Max Temperature 82 °F 90 °F 108 °F (1934)
Min Temperature 68 °F 68 °F 49 °F (1904)
Degree Days  
Heating Degree Days 0 0  
Month to date heating degree days 0  
Since 1 June heating degree days 6  
Since 1 July heating degree days 0  
Cooling Degree Days 10 14  
Month to date cooling degree days 317  
Year to date cooling degree days 721  
Since 1 June cooling degree days 582  
Growing Degree Days 25 (Base 50)    
Moisture  
Dew Point 67 °F    
Average Humidity 82    
Maximum Humidity 94    
Minimum Humidity 56    
Precipitation  
Precipitation 0.04 in 0.10 in 3.07 in (1917)
Month to date precipitation 2.41  
Year to date precipitation 24.65  
Snow  
Snow 0.00 in 0.00 in - ()
Month to date snowfall 0.0  
Since 1 June snowfall 0.0  
Since 1 July snowfall 0.0  
Snow Depth -    
Sea Level Pressure  
Sea Level Pressure 29.93 in    
Wind  
Wind Speed 2 mph (NNE)    
Max Wind Speed 8 mph    
Max Gust Speed -    
Visibility 8 miles    
Events Rain    
T = Trace of Precipitation, MM = Missing Value Source: NWS Daily Summary

Daily Weather History Graph

Daily Weather History Graph

Search for Another Location

Airport or City:

Trip Planner

Search our weather history database for the weather conditions in past years. The results will help you decide how hot, cold, wet, or windy it might be!

Date:

Astronomy

Jul. 24, 2013 Rise Set
Actual Time 6:10 AM CDT 8:21 PM CDT
Civil Twilight 5:41 AM CDT 8:50 PM CDT
Nautical Twilight 5:05 AM CDT 9:26 PM CDT
Astronomical Twilight 4:27 AM CDT 10:04 PM CDT
Moon 9:34 PM CDT (7/24) 8:25 AM CDT (7/24)
Length of Visible Light 15h 09m
Length of Day
14h 11m
Waning Gibbous, 94% of the Moon is Illuminated
Jul 24
Waning Gibbous
Jul 29
Last Quarter
Aug 6
New
Aug 14
First Quarter
Aug 20
Full

Hourly Weather History & Observations

Time (CDT) Temp. Heat Index Dew Point Humidity Pressure Visibility Wind Dir Wind Speed Gust Speed Precip Events Conditions
12:53 AM 69.1 °F - 66.9 °F 93% 29.85 in 10.0 mi Calm Calm - N/A   Clear
1:53 AM 69.1 °F - 66.9 °F 93% 29.86 in 8.0 mi Calm Calm - N/A   Clear
2:53 AM 70.0 °F - 66.9 °F 90% 29.86 in 10.0 mi Calm Calm - N/A   Clear
3:53 AM 71.1 °F - 66.9 °F 87% 29.88 in 10.0 mi Calm Calm - 0.01 in Rain Light Rain
4:53 AM 70.0 °F - 66.9 °F 90% 29.88 in 10.0 mi Variable 3.5 mph - 0.02 in Rain Light Rain
5:13 AM 69.8 °F - 66.2 °F 88% 29.90 in 8.0 mi Variable 3.5 mph - 0.00 in   Overcast
5:21 AM 69.8 °F - 66.2 °F 88% 29.90 in 8.0 mi ENE 4.6 mph - 0.00 in   Mostly Cloudy
5:28 AM 69.8 °F - 66.2 °F 88% 29.89 in 8.0 mi ENE 5.8 mph - 0.00 in   Mostly Cloudy
5:35 AM 68.0 °F - 66.2 °F 94% 29.89 in 8.0 mi East 4.6 mph - 0.00 in   Partly Cloudy
5:53 AM 69.1 °F - 66.9 °F 93% 29.89 in 8.0 mi ENE 3.5 mph - 0.00 in   Partly Cloudy
6:13 AM 69.8 °F - 66.2 °F 88% 29.92 in 8.0 mi Calm Calm - N/A   Mostly Cloudy
6:28 AM 69.8 °F - 66.2 °F 88% 29.92 in 8.0 mi Calm Calm - N/A   Scattered Clouds
6:36 AM 69.8 °F - 66.2 °F 88% 29.92 in 7.0 mi Calm Calm - N/A   Mostly Cloudy
6:53 AM 69.1 °F - 66.9 °F 93% 29.91 in 7.0 mi Calm Calm - N/A   Overcast
7:21 AM 69.8 °F - 68.0 °F 94% 29.92 in 8.0 mi Calm Calm - N/A   Scattered Clouds
7:53 AM 71.1 °F - 69.1 °F 93% 29.92 in 7.0 mi Calm Calm - N/A   Clear
8:53 AM 73.9 °F - 70.0 °F 87% 29.94 in 9.0 mi Variable 5.8 mph - N/A   Clear
9:11 AM 75.2 °F - 69.8 °F 83% 29.96 in 9.0 mi North 5.8 mph - N/A   Partly Cloudy
9:40 AM 73.4 °F - 69.8 °F 88% 29.96 in 9.0 mi North 8.1 mph - N/A   Mostly Cloudy
9:53 AM 75.0 °F - 68.0 °F 79% 29.95 in 9.0 mi Variable 4.6 mph - N/A   Mostly Cloudy
10:06 AM 75.2 °F - 68.0 °F 78% 29.97 in 9.0 mi NW 5.8 mph - N/A   Mostly Cloudy
10:53 AM 75.9 °F - 66.9 °F 74% 29.97 in 9.0 mi North 4.6 mph - N/A   Overcast
11:53 AM 79.0 °F - 66.9 °F 66% 29.98 in 10.0 mi NW 3.5 mph - N/A   Overcast
12:02 PM 80.6 °F 82.7 °F 66.2 °F 61% 30.00 in 10.0 mi Variable 4.6 mph - N/A   Mostly Cloudy
12:53 PM 82.0 °F 84.9 °F 68.0 °F 62% 29.96 in 9.0 mi Variable 3.5 mph - N/A   Mostly Cloudy
2:53 PM 75.9 °F - 70.0 °F 82% 29.96 in 8.0 mi NE 3.5 mph - 0.01 in   Overcast
3:53 PM 79.0 °F - 68.0 °F 69% 29.95 in 8.0 mi Calm Calm - N/A   Overcast
4:53 PM 82.9 °F 85.4 °F 66.9 °F 58% 29.94 in 8.0 mi Calm Calm - N/A   Scattered Clouds
5:53 PM 82.9 °F 85.0 °F 66.0 °F 56% 29.93 in 8.0 mi NE 3.5 mph - N/A   Clear
6:53 PM 82.0 °F 84.1 °F 66.0 °F 58% 29.93 in 8.0 mi Calm Calm - N/A   Partly Cloudy
7:53 PM 79.0 °F - 68.0 °F 69% 29.93 in 8.0 mi Calm Calm - N/A   Mostly Cloudy
8:53 PM 73.0 °F - 68.0 °F 84% 29.95 in 8.0 mi Calm Calm - N/A   Clear
9:53 PM 72.0 °F - 69.1 °F 91% 29.98 in 7.0 mi Calm Calm - N/A   Scattered Clouds
10:53 PM 73.0 °F - 66.9 °F 81% 29.99 in 8.0 mi ENE 3.5 mph - N/A   Clear
11:53 PM 71.1 °F - 66.0 °F 84% 30.00 in 9.0 mi Calm Calm - N/A   Clear